Temp_Advection
nan nan nan nan nan nan nan nan nan nan nan nan nan nan nan nan nan nan nan nan nan nan nan nan nan nan nan nan nan nan nan nan nan nan nan nan nan nan nan nan nan nan nan nan
nan -0 0 0 0 1 0 0 0 0 1 0 -0 -0 -0 -0 -0 0 0 0 -0 0 0 0 0 0 0 0 0 0 0 0 0 -0 -0 -0 -0 -0 -0 -0 -0 0 -0 nan
nan 0 0 0 0 0 0 0 0 0 0 0 -0 0 -0 0 0 -0 -0 -0 0 0 0 -0 0 0 0 0 0 0 -0 0 0 0 0 0 0 -0 0 -0 -0 -0 -0 nan
nan 0 0 0 0 0 0 0 0 0 0 -0 -0 0 -0 0 -0 -0 0 0 0 0 0 0 0 0 0 0 0 -0 0 0 0 -0 0 -0 -0 -1 -0 -0 -0 -0 -0 nan
nan 0 0 0 0 0 1 0 0 0 -0 0 0 -0 -0 -0 -1 0 0 -0 0 0 0 0 -0 -0 -0 0 0 0 0 0 0 -0 -0 -0 -0 -1 -0 0 1 1 -0 nan
nan 0 0 0 0 0 0 -0 -0 0 -0 0 -0 -0 -0 -0 -0 -0 -0 0 0 -0 -0 -0 -2 -0 0 0 -0 0 0 0 0 -0 0 0 0 -0 1 -0 -0 0 0 nan
nan 0 0 0 0 0 0 0 0 0 -0 -0 -0 0 0 -0 -0 -0 -0 0 -0 -0 0 -0 0 0 0 0 -0 -0 -0 0 0 0 0 0 -0 -0 0 -0 -0 0 -0 nan
nan -0 -0 -0 0 0 0 -0 0 -0 -0 -0 0 0 -0 0 0 0 -0 -1 -0 0 1 0 -0 -0 0 -0 0 -0 -0 -0 0 0 -0 -0 0 0 0 0 0 0 0 nan
nan -0 -0 -0 0 0 0 -0 -0 -0 0 -0 0 -0 0 0 0 0 -0 -0 0 1 0 0 0 0 -0 0 0 0 -0 -0 -0 -0 0 0 0 0 -0 -0 0 0 0 nan
nan -0 -0 -0 0 0 0 -0 -0 -0 -0 -0 0 0 0 -0 -0 0 0 0 0 0 -0 -0 0 0 0 0 0 0 0 0 0 -0 0 0 -0 0 -0 -0 0 -0 -0 nan
nan -0 -0 0 0 0 -0 -0 -0 -0 -0 0 0 0 -0 0 0 -0 0 -0 0 0 -0 -0 -0 0 0 -0 0 -0 0 0 0 0 0 0 0 0 0 -0 0 0 0 nan
nan 0 0 -0 -0 -0 -0 -0 -0 -0 -0 -0 -0 -0 0 -0 -0 -1 -0 -0 -0 -0 -0 0 -0 -0 0 0 -0 -0 0 0 0 0 0 -0 -0 0 0 -0 -1 0 0 nan
nan 0 -0 -0 -0 -0 -0 -0 -0 -0 -0 0 0 -0 -0 -0 -1 0 -0 -0 -1 -0 -0 0 0 -0 -0 -0 -0 0 -0 -0 -0 0 0 -0 0 0 0 0 -0 -0 0 nan
nan -0 -0 -0 -0 0 0 -0 -0 -0 -0 0 -0 -0 -0 -0 -0 -0 -1 -1 -0 -0 -0 -0 0 0 -0 0 -0 0 -0 -0 -0 -0 -0 -0 -0 0 0 0 0 0 0 nan
nan -0 0 0 -0 0 -0 -0 -0 -0 0 -0 0 0 0 0 -0 -0 -0 -0 -0 -0 -0 -0 0 0 -0 -0 -0 0 0 -0 -0 -0 -0 -0 -0 0 0 -0 0 0 -0 nan
nan 0 0 -0 -0 -0 -1 -0 -1 -0 -0 -0 0 0 0 0 -1 -1 0 0 0 -0 -0 -0 0 -0 -0 -0 0 -0 0 -0 -0 0 -0 0 0 1 0 0 0 0 0 nan
nan -0 -0 0 0 0 -0 -0 -1 -0 -0 -0 -0 -0 0 0 0 0 0 0 0 -0 -0 -0 0 0 -0 -0 0 0 0 1 0 -0 -2 -1 0 0 0 0 0 0 0 nan
nan -0 -0 -0 0 0 -0 0 0 -0 -0 0 -0 -0 0 0 -0 0 0 0 0 -0 -0 -0 -0 -0 -0 -0 -0 0 0 0 1 1 -0 -1 -0 -0 0 0 0 0 0 nan
nan -0 0 0 -0 0 0 1 0 -0 0 -0 -0 -0 -0 0 -0 0 0 -0 -0 -0 -0 0 -0 -0 0 0 -0 -1 0 -0 -0 0 0 0 0 0 0 0 -0 -0 -0 nan
nan -0 0 0 0 -0 -0 0 0 -0 0 -0 -0 -0 0 0 -0 -0 0 -0 -0 0 -0 -0 -0 -0 -0 0 -0 -1 -0 -0 -0 -1 -0 0 -0 -0 0 -0 -0 -0 -0 nan
nan -0 0 0 -0 0 0 0 0 0 0 0 -0 -0 -0 -0 -0 0 -0 -0 -0 0 0 -0 -0 0 -0 0 0 0 -0 0 -0 0 -0 -0 -0 -1 -0 -0 -0 -0 -0 nan
nan -0 0 0 0 -0 -0 -0 -0 0 0 -0 0 0 0 0 -0 -0 -0 -0 -0 0 -0 -0 0 -0 0 -0 0 0 0 0 0 0 0 0 -0 -0 -0 -0 -0 -0 -0 nan
nan 0 -0 -0 -0 -0 0 -0 -0 -0 0 0 -1 -0 0 0 -1 -1 -0 -0 0 -0 -0 -0 -0 -0 0 0 -0 -0 0 0 0 0 0 -0 0 0 0 0 0 0 0 nan
nan -0 -0 -0 -0 0 -0 -0 0 0 0 1 -1 -1 0 -0 -1 -0 0 0 -0 -0 0 -0 -0 -0 -0 0 0 0 0 0 0 0 -0 0 0 0 0 0 0 0 0 nan
nan -0 -0 0 0 -0 -0 -0 0 0 1 -0 -1 -0 -0 -0 -0 0 0 -0 0 0 -0 -0 0 0 0 0 0 0 0 0 0 0 0 0 0 -0 -0 0 0 0 0 nan
nan -0 -0 -0 0 -0 0 0 1 1 0 0 -1 -0 -0 0 -0 -0 -0 -0 0 -0 -0 -0 -0 -0 0 0 0 0 0 0 0 0 0 0 0 0 0 0 0 0 0 nan
nan nan nan nan nan nan nan nan nan nan nan nan nan nan nan nan nan nan nan nan nan nan nan nan nan nan nan nan nan nan nan nan nan nan nan nan nan nan nan nan nan nan nan nan
Wind_Speed
23 25 25 22 25 24 22 17 4 9 25 10 3 11 15 15 6 21 6 2 5 6 5 4 4 5 4 6 6 9 4 2 4 12 1 5 11 10 7 5 5 3 3 5
25 25 26 24 26 28 27 10 8 13 28 9 10 6 15 11 7 9 4 11 7 4 6 4 6 5 2 10 7 8 7 3 2 3 4 3 7 9 12 5 2 6 5 3
26 25 25 25 27 29 28 10 4 7 18 11 5 7 6 11 12 11 3 4 4 6 10 7 5 4 4 6 4 4 8 4 6 8 3 1 4 13 14 10 4 5 7 8
26 25 25 28 26 26 32 13 4 7 4 9 6 5 2 15 9 10 9 7 10 8 8 10 10 4 3 2 10 5 4 6 5 5 5 2 4 13 14 15 12 8 6 10
27 27 27 27 28 27 30 10 5 7 2 9 14 11 11 11 13 8 5 12 5 8 11 12 11 7 5 5 3 3 2 1 2 4 10 9 10 14 8 13 15 13 6 7
27 27 27 27 27 31 16 17 9 5 6 5 10 15 21 16 10 14 19 14 9 13 15 12 19 18 16 8 10 6 6 6 4 7 4 7 7 10 11 3 1 6 7 7
26 27 26 26 27 33 30 18 14 5 3 6 9 9 11 19 17 13 6 17 12 11 6 9 6 4 7 10 6 7 6 6 3 1 3 7 1 3 4 6 2 3 8 16
27 29 29 27 26 30 33 28 14 9 4 11 9 12 9 14 19 20 19 24 14 12 15 3 3 1 3 1 4 7 5 4 3 3 4 2 2 4 5 4 4 0 11 14
28 29 29 28 28 29 30 33 30 11 2 5 7 6 14 6 6 3 12 18 11 10 3 3 5 3 3 5 4 6 7 5 3 2 3 6 5 3 6 3 3 8 12 16
31 31 31 30 29 29 31 30 31 19 9 7 9 5 6 8 7 2 3 7 5 9 2 3 3 3 5 7 8 6 5 2 6 5 4 4 2 6 4 5 5 11 20 22
38 36 34 32 30 30 32 33 28 30 7 10 13 11 8 6 11 5 6 5 2 2 1 2 3 3 5 4 4 6 8 7 4 4 3 6 3 3 6 4 10 16 17 19
33 34 35 34 31 28 32 26 31 26 11 4 10 13 14 21 17 16 18 4 6 7 3 2 4 2 2 5 3 1 2 6 4 3 4 1 2 1 9 13 20 14 15 16
26 29 31 31 31 33 36 32 29 23 7 9 9 12 10 19 22 20 8 6 12 7 6 3 2 3 3 3 3 4 1 2 4 3 3 3 8 13 11 15 15 14 15 22
26 25 28 30 33 34 32 29 27 21 8 3 3 2 10 14 21 22 15 11 18 6 5 2 2 3 2 2 3 3 2 6 7 3 5 8 6 12 17 18 18 19 18 22
25 27 26 31 30 32 28 27 28 18 6 5 3 3 5 9 12 17 9 14 16 7 2 3 1 3 4 1 2 1 3 5 4 5 16 5 14 21 20 20 20 20 23 23
30 26 25 22 30 43 32 8 21 19 9 2 1 1 4 7 18 17 13 11 9 4 4 2 3 3 5 2 2 0 1 7 6 5 21 7 22 23 18 19 20 21 21 23
29 25 24 28 29 29 12 7 13 21 9 2 2 3 4 7 9 10 9 7 5 3 4 2 3 3 7 2 2 4 5 9 12 19 24 19 25 14 20 20 20 20 22 22
28 29 33 27 21 19 4 11 26 17 4 2 3 1 2 3 3 3 2 3 3 5 3 2 2 3 2 2 3 9 12 17 22 15 2 17 22 24 21 21 25 25 25 24
34 29 25 23 17 5 17 20 15 7 2 3 2 3 2 2 3 2 3 3 3 2 2 1 2 2 1 3 13 17 22 9 16 7 8 20 27 27 25 26 25 27 26 24
33 32 7 5 10 28 18 6 6 5 3 2 2 3 1 4 2 3 2 4 1 2 2 1 3 1 4 6 16 18 16 11 16 19 18 26 27 28 29 28 26 26 26 26
14 4 4 24 25 9 3 3 2 1 1 2 3 4 3 2 3 2 3 1 1 2 2 2 1 1 1 9 14 17 8 9 11 7 13 25 28 30 29 27 25 25 26 25
8 18 22 8 3 3 3 1 1 0 3 2 4 4 5 4 3 3 3 2 2 1 2 3 1 2 7 15 17 13 10 12 9 8 18 22 24 25 26 26 25 23 23 22
20 6 3 2 3 6 4 3 1 1 1 5 6 3 3 3 5 4 3 4 2 0 3 2 3 2 15 19 16 14 12 12 11 12 15 17 21 22 24 25 22 21 22 21
4 3 4 2 2 1 1 1 2 1 8 21 17 6 3 4 3 1 4 2 2 3 1 4 2 11 20 20 17 17 16 14 14 15 17 19 20 23 22 20 21 22 22 22
4 4 3 2 1 2 2 0 2 10 13 14 10 6 4 3 4 2 3 3 1 4 4 2 7 14 19 20 19 18 17 16 17 19 20 20 20 20 20 20 21 22 21 22
4 6 3 3 3 3 5 7 8 11 16 11 7 3 3 2 3 3 2 5 4 3 1 3 10 14 18 20 18 16 14 15 17 20 20 18 17 19 19 20 20 20 20 22
4 4 8 5 5 5 5 9 7 6 6 2 2 3 2 2 2 1 2 2 1 5 5 8 9 10 14 15 14 14 14 14 17 18 19 18 17 17 19 21 21 20 20 19
Wind_Direction
225 224 227 223 211 205 204 200 210 194 185 181 241 198 222 243 255 233 247 277 209 221 196 248 250 227 229 184 156 158 178 167 246 233 262 231 202 186 168 145 203 218 148 263
225 223 224 215 210 199 193 203 191 191 190 204 223 217 235 239 254 209 214 227 196 195 205 230 204 228 138 170 174 166 178 186 204 291 333 325 256 219 198 123 127 196 170 228
222 220 217 210 207 201 198 181 183 202 210 210 217 199 216 227 234 254 257 250 207 201 233 224 230 225 218 185 167 160 129 163 194 227 203 295 212 224 195 180 180 174 217 156
216 221 216 210 207 203 200 194 203 179 184 208 203 191 255 221 224 220 201 248 232 218 232 238 234 194 167 144 163 134 168 188 209 241 225 212 278 254 235 205 207 196 196 178
217 215 217 210 207 210 206 173 159 182 198 188 199 211 226 230 227 228 218 227 225 221 235 220 245 161 176 182 191 138 178 189 155 269 230 221 244 237 242 225 215 226 133 128
216 216 217 215 204 202 206 218 194 160 188 173 184 214 221 234 231 256 240 229 224 230 237 236 293 224 189 181 162 180 157 146 167 252 203 238 246 240 221 125 13 143 172 171
212 209 213 212 202 208 208 200 195 167 235 196 202 199 205 232 229 243 250 234 231 235 229 152 224 97 95 155 168 148 149 139 196 122 110 226 78 351 221 132 92 102 106 143
213 212 212 212 207 208 217 219 192 187 250 222 209 221 215 236 241 243 244 258 275 244 170 166 166 26 84 360 197 171 151 138 153 191 219 354 213 201 160 171 205 124 130 128
215 215 216 216 213 210 214 217 214 206 186 223 208 192 206 207 207 230 241 235 240 188 164 198 162 173 130 187 183 165 147 123 128 160 226 224 232 146 141 116 294 175 147 152
221 218 216 217 215 212 213 218 213 219 221 236 189 195 200 191 183 214 154 170 163 184 240 134 139 185 189 163 172 167 156 155 196 217 248 286 206 143 134 100 235 143 156 159
222 218 216 215 215 211 208 215 215 212 236 211 219 225 217 205 188 169 161 122 183 132 271 159 171 161 205 137 197 176 171 162 179 198 202 263 142 124 179 163 118 146 151 156
214 212 211 212 211 203 202 209 215 222 230 235 239 247 252 233 228 210 179 201 165 160 157 229 127 206 104 148 196 97 187 179 177 179 211 63 20 124 137 145 152 155 165 173
199 202 202 203 198 193 201 207 188 195 233 269 252 255 246 217 211 212 170 208 175 193 198 157 115 122 135 158 227 110 93 129 107 136 165 134 119 131 141 148 152 150 156 154
192 189 189 190 190 194 199 198 202 178 180 208 291 313 300 187 188 188 195 206 183 219 160 103 131 123 145 183 170 138 169 133 133 80 131 126 173 167 151 140 140 142 146 151
186 189 184 185 192 193 209 217 177 185 187 177 180 351 11 139 181 179 167 196 177 156 91 64 116 123 105 358 77 166 188 155 168 216 185 156 171 170 162 152 154 158 158 157
176 174 182 197 164 169 161 157 195 188 195 212 110 90 93 118 169 191 157 154 155 119 117 135 111 115 94 102 189 13 196 193 197 179 161 161 163 163 167 168 165 168 167 164
180 184 185 162 161 166 167 177 174 177 159 180 32 353 33 64 100 109 125 132 129 132 121 88 133 104 152 118 182 152 123 138 137 142 134 117 156 159 170 170 166 164 163 162
159 161 151 152 154 161 196 166 153 153 136 180 105 293 40 70 82 75 80 106 105 48 101 93 96 91 80 102 132 139 136 135 139 135 96 170 162 159 164 163 161 160 163 163
142 144 143 144 153 135 132 134 150 168 230 131 105 129 205 131 81 95 72 59 48 17 74 56 78 331 64 208 166 160 155 152 160 138 131 158 161 161 167 167 169 168 168 169
140 141 120 105 133 136 128 132 184 201 198 196 99 140 106 127 66 35 73 37 100 70 299 38 66 242 358 162 177 169 160 161 166 136 142 158 159 164 171 176 176 177 173 172
108 88 81 133 135 144 149 124 128 173 58 117 115 135 121 111 98 148 38 144 357 91 266 108 17 309 258 161 162 167 176 186 185 223 188 176 172 172 175 177 179 178 178 176
94 114 116 124 98 81 91 314 326 149 169 130 119 128 107 84 85 91 16 94 39 134 328 74 312 253 163 159 155 164 175 177 183 189 179 180 181 182 181 181 183 183 183 180
107 89 84 357 358 45 121 178 283 77 183 140 136 65 78 96 71 63 67 69 203 21 43 217 225 177 164 161 161 165 182 185 178 172 179 183 183 184 186 185 188 185 183 181
69 73 43 92 342 97 220 160 179 86 137 119 107 70 77 47 52 27 81 252 67 46 39 236 198 183 171 171 175 174 178 186 184 176 179 178 183 187 192 195 188 187 185 182
65 54 55 49 27 22 8 238 112 118 121 121 97 68 78 21 79 34 94 44 281 196 226 237 155 179 176 180 182 185 181 184 185 183 183 186 193 193 194 195 191 189 186 181
59 52 65 48 47 3 39 74 72 108 114 98 74 92 60 22 129 80 205 138 213 243 221 169 170 175 178 179 186 188 192 194 191 189 191 198 198 195 194 189 189 189 187 180
45 38 67 91 60 53 52 59 65 106 94 79 98 71 174 108 67 89 163 196 246 144 132 160 167 176 185 194 196 189 191 196 197 195 198 199 196 192 188 184 184 186 185 181
Height
1406 1411 1415 1419 1423 1430 1433 1437 1438 1437 1442 1444 1438 1440 1440 1438 1435 1440 1441 1440 1439 1441 1441 1441 1441 1439 1437 1437 1438 1445 1446 1454 1454 1452 1449 1449 1450 1449 1460 1476 1477 1468 1484 1473
1400 1405 1409 1413 1419 1423 1427 1431 1432 1434 1436 1435 1435 1435 1433 1436 1435 1437 1437 1437 1437 1438 1441 1445 1437 1435 1436 1436 1438 1442 1445 1456 1461 1454 1455 1452 1455 1445 1445 1452 1457 1461 1472 1459
1394 1398 1403 1408 1412 1417 1423 1426 1428 1429 1429 1430 1431 1433 1433 1433 1432 1434 1435 1432 1434 1436 1437 1438 1434 1436 1435 1434 1435 1437 1439 1450 1448 1446 1445 1447 1449 1443 1437 1443 1457 1453 1454 1452
1388 1393 1397 1401 1407 1412 1417 1417 1417 1419 1423 1423 1426 1430 1429 1433 1430 1429 1430 1430 1431 1435 1437 1436 1435 1435 1435 1435 1434 1437 1441 1447 1451 1446 1445 1447 1447 1442 1439 1435 1438 1447 1444 1450
1382 1387 1391 1396 1401 1406 1409 1408 1413 1417 1417 1419 1425 1427 1423 1425 1424 1425 1428 1430 1428 1430 1432 1432 1429 1429 1430 1432 1437 1438 1440 1447 1449 1447 1440 1437 1439 1435 1431 1427 1429 1435 1441 1450
1377 1382 1386 1391 1395 1400 1400 1404 1408 1412 1411 1415 1419 1416 1415 1417 1424 1423 1422 1425 1427 1425 1423 1426 1427 1420 1419 1422 1429 1439 1442 1446 1449 1440 1440 1441 1438 1433 1426 1435 1438 1437 1443 1441
1371 1376 1382 1385 1389 1394 1399 1399 1406 1410 1409 1408 1408 1409 1413 1415 1418 1418 1415 1418 1420 1417 1420 1424 1427 1419 1417 1420 1426 1429 1439 1443 1446 1442 1444 1436 1431 1430 1430 1435 1441 1439 1439 1444
1365 1371 1376 1380 1385 1391 1394 1398 1401 1406 1404 1405 1408 1408 1409 1411 1413 1414 1414 1413 1415 1415 1419 1425 1421 1423 1423 1425 1424 1428 1431 1440 1443 1447 1440 1437 1433 1434 1436 1432 1441 1441 1443 1450
1360 1365 1370 1375 1380 1386 1389 1393 1398 1402 1404 1400 1401 1403 1406 1407 1408 1411 1406 1410 1410 1414 1414 1418 1413 1420 1419 1426 1427 1423 1429 1431 1438 1444 1444 1438 1435 1429 1430 1431 1444 1439 1442 1449
1353 1358 1364 1369 1374 1380 1384 1387 1394 1399 1399 1394 1397 1397 1398 1398 1400 1401 1401 1405 1408 1409 1409 1413 1417 1419 1414 1420 1421 1425 1430 1436 1435 1437 1437 1434 1428 1428 1430 1446 1440 1437 1441 1446
1344 1350 1357 1362 1368 1374 1379 1384 1389 1394 1392 1391 1391 1391 1392 1392 1393 1398 1400 1404 1406 1408 1408 1401 1411 1416 1411 1413 1420 1415 1420 1427 1432 1431 1438 1438 1426 1429 1433 1434 1434 1437 1441 1445
1335 1342 1349 1356 1363 1369 1376 1380 1383 1389 1390 1388 1387 1386 1386 1387 1389 1391 1393 1391 1393 1396 1403 1399 1404 1408 1412 1411 1418 1411 1424 1419 1424 1425 1428 1427 1427 1428 1428 1430 1433 1438 1441 1444
1331 1337 1344 1351 1358 1365 1370 1374 1379 1383 1384 1384 1384 1381 1379 1380 1382 1386 1388 1389 1387 1389 1389 1388 1393 1401 1406 1412 1416 1410 1413 1414 1421 1425 1428 1428 1428 1430 1430 1433 1435 1438 1441 1443
1329 1335 1341 1348 1355 1362 1367 1369 1376 1379 1384 1384 1379 1376 1373 1373 1375 1378 1384 1382 1385 1386 1386 1389 1395 1398 1398 1403 1403 1405 1408 1412 1419 1426 1427 1429 1430 1430 1431 1434 1437 1440 1444 1447
1327 1334 1340 1346 1353 1359 1364 1368 1372 1377 1381 1379 1378 1375 1371 1372 1374 1378 1380 1381 1383 1384 1387 1390 1395 1395 1398 1402 1402 1407 1404 1409 1415 1415 1411 1416 1421 1427 1431 1434 1438 1442 1445 1449
1326 1333 1338 1344 1347 1353 1361 1369 1372 1373 1375 1375 1378 1375 1374 1374 1376 1378 1379 1380 1382 1384 1386 1391 1391 1393 1397 1404 1406 1404 1404 1404 1406 1406 1410 1415 1419 1426 1431 1435 1439 1443 1447 1451
1326 1333 1339 1344 1349 1356 1362 1363 1364 1371 1373 1374 1377 1375 1374 1374 1375 1377 1379 1381 1383 1385 1387 1389 1391 1393 1396 1402 1404 1404 1404 1405 1405 1407 1411 1421 1422 1425 1431 1436 1440 1445 1449 1453
1327 1333 1340 1348 1354 1360 1361 1361 1367 1371 1373 1374 1378 1380 1378 1378 1379 1380 1381 1382 1383 1386 1388 1390 1391 1394 1396 1402 1404 1405 1406 1408 1410 1412 1412 1415 1421 1427 1432 1437 1441 1445 1450 1453
1333 1340 1346 1352 1356 1358 1360 1366 1370 1372 1376 1372 1375 1381 1388 1379 1380 1381 1382 1383 1389 1389 1390 1391 1393 1399 1401 1400 1402 1404 1406 1408 1411 1413 1415 1418 1422 1427 1432 1436 1441 1445 1449 1453
1339 1346 1351 1354 1356 1361 1364 1370 1371 1372 1371 1372 1374 1375 1379 1380 1381 1384 1386 1386 1392 1395 1395 1393 1397 1403 1400 1398 1401 1404 1407 1409 1411 1414 1419 1421 1424 1428 1432 1436 1441 1446 1449 1453
1343 1347 1351 1355 1360 1364 1366 1367 1369 1370 1371 1371 1373 1374 1377 1380 1383 1386 1387 1391 1393 1396 1398 1397 1403 1405 1402 1402 1404 1407 1410 1411 1413 1415 1417 1421 1424 1428 1432 1438 1442 1446 1449 1453
1345 1349 1356 1360 1363 1364 1367 1372 1370 1369 1370 1371 1373 1376 1377 1380 1381 1384 1389 1391 1395 1393 1398 1400 1408 1403 1401 1403 1406 1410 1412 1413 1415 1417 1419 1423 1426 1430 1434 1439 1442 1446 1450 1454
1352 1356 1360 1362 1367 1374 1373 1378 1372 1373 1368 1369 1372 1378 1379 1382 1384 1388 1391 1400 1405 1399 1410 1407 1403 1401 1402 1405 1408 1411 1414 1415 1417 1419 1422 1425 1429 1432 1436 1439 1443 1447 1451 1455
1355 1358 1369 1369 1374 1369 1368 1368 1368 1368 1367 1369 1373 1378 1381 1385 1389 1395 1400 1402 1402 1416 1415 1404 1399 1400 1403 1406 1409 1412 1414 1417 1419 1421 1424 1427 1430 1434 1437 1441 1444 1447 1451 1455
1359 1362 1372 1372 1371 1369 1369 1368 1368 1369 1370 1372 1377 1382 1385 1390 1395 1398 1401 1406 1414 1410 1410 1401 1399 1401 1404 1407 1410 1413 1415 1417 1420 1422 1425 1429 1431 1434 1438 1441 1444 1448 1451 1455
1364 1369 1372 1373 1372 1371 1370 1371 1371 1372 1373 1375 1378 1385 1393 1396 1396 1399 1405 1404 1412 1406 1399 1399 1400 1402 1405 1408 1411 1414 1416 1419 1421 1424 1427 1429 1432 1435 1438 1441 1444 1448 1451 1455
1370 1375 1374 1374 1375 1374 1374 1374 1374 1375 1376 1382 1383 1391 1392 1394 1398 1396 1397 1402 1399 1398 1399 1400 1402 1404 1406 1408 1411 1414 1416 1419 1421 1424 1427 1430 1432 1435 1438 1441 1444 1448 1452 1456